Back to catalog

STARLINK-35637

AliveCommunicationsVLEO
NORAD 66130·PAYLOAD·🇺🇸 United States

Launched Oct 22, 2025 from Vandenberg Space Force Base

Loading…

Next Passes (next 24 hours)

TLE

FreshSource: CelesTrak SupGP

Epoch: Sep 14, 2026, 15:06 UTC

1 66130C 25237S   26257.62965278 -.00026512  00000+0 -78362-3 0  2575
2 66130  53.1584 240.8116 0001321  86.7205 325.5277 15.34391750    11

Track STARLINK-35637 in real time with AllMySat

Download on the App Store